Flag for Canada Weather past 2 weeks in Morden, Manitoba, Canada

Now
49 °F

Cool.


Feels Like: 46 °F
Forecast: 44 / 78 °F
Wind: 7 mph from West

Location: Morden CDA CS

Current Time: May 22, 2015 at 3:48:55 AM

Latest Report: May 22, 2015 at 3:00 AM


Visibility: N/A

Pressure: 30.13 "Hg

Humidity: 57%

Dew point: 35 °F

Location of MordenLocation

Historic Weather in Morden — Graph

°F

Morden temperature yesterday

Maximum temperature yesterday: 67 °F (at 6:00 PM)
Minimum temperature yesterday: 42 °F (at 5:00 AM)
Average temperature yesterday: 55 °F

Past Weeks' High & Low Weather Summary

 TemperatureHumidityPressure
High74 °F (May 20, 4:00 PM)100% (May 13, 7:00 PM)30.47 "Hg (May 13, 7:00 PM)
Low27 °F (May 12, 6:00 AM)19% (May 20, 2:00 PM)29.56 "Hg (May 7, 6:00 AM)
Average46 °F69%30.12 "Hg
* Reported May 7 2:00 AM — May 22 2:00 AM, Morden, Weather by CustomWeather, © 2015

Note: Actual official high and low records may vary slightly from our data, if they occured in-between our weather recording intervals... More about our weather records

Advertising

Morden weather history for previous 24 hours

 ConditionsComfort  
Time TempWeatherWind HumidityBarometerVisibility
2:00 AM
Fri, May 22
49 °FCool.7 mph59%30.13 "HgN/A
1:00 AM47 °FCool.5 mph64%30.14 "HgN/A
12:00 AM47 °FCool.3 mph62%30.13 "HgN/A
11:00 PM
Thu, May 21
49 °FCool.3 mph66%30.13 "HgN/A
10:00 PM54 °FCool.1 mph46%30.13 "HgN/A
9:00 PM60 °FRefreshingly cool.2 mph34%30.12 "HgN/A
8:00 PM66 °FMild.5 mph26%30.12 "HgN/A
7:00 PM67 °FMild.7 mph28%30.12 "HgN/A
6:00 PM67 °FMild.6 mph24%30.14 "HgN/A
5:00 PM67 °FMild.3 mph26%30.15 "HgN/A
4:00 PM66 °FMild.6 mph27%30.16 "HgN/A
3:00 PM66 °FMild.5 mph27%30.17 "HgN/A
2:00 PM64 °FMild.7 mph27%30.18 "HgN/A
1:00 PM62 °FRefreshingly cool.7 mph29%30.19 "HgN/A
12:00 PM62 °FRefreshingly cool.8 mph31%30.19 "HgN/A
11:00 AM59 °FRefreshingly cool.5 mph42%30.19 "HgN/A
10:00 AM57 °FRefreshingly cool.3 mph48%30.18 "HgN/A
9:00 AM51 °FCool.6 mph57%30.18 "HgN/A
8:00 AM49 °FCool.7 mph59%30.18 "HgN/A
7:00 AM47 °FCool.6 mph56%30.17 "HgN/A
6:00 AM43 °FQuite cool.6 mph62%30.16 "HgN/A
5:00 AM42 °FQuite cool.6 mph65%30.14 "HgN/A
4:00 AM44 °FQuite cool.7 mph60%30.14 "HgN/A
3:00 AM45 °FCool.7 mph59%30.13 "HgN/A
Weather by CustomWeather, © 2015

See weather overviewHow to use our weather pages